Regional Weather Roundup
Issued by NWS Cleveland, OH

Home | Current Version | Previous Version | Graphics & Text | Print | Product List | Glossary On
Versions: 1 2 3 4 5 6 7 8 9 10 11 12 13 14 15 16 17 18 19 20 21 22 23 24 25 26 27 28 29 30 31 32 33 34 35 36 37 38 39 40 41 42 43 44 45 46 47 48 49 50
000
ASUS41 KCLE 211600
RWRCLE
OHIO REGIONAL WEATHER ROUNDUP
NATIONAL WEATHER SERVICE WILMINGTON, OH
1100 AM EST SUN DEC 21 2014

NOTE: "FAIR" INDICATES FEW OR NO CLOUDS BELOW 12,000 FEET WITH NO
SIGNIFICANT WEATHER AND/OR OBSTRUCTIONS TO VISIBILITY.

OHZ001>008-015>018-024>027-034-035-043-044-211700-
   NORTHWEST OHIO

CITY           SKY/WX    TMP DP  RH WIND       PRES   REMARKS
DEFIANCE       CLOUDY    32  27  81 S5        30.32R HAZE    WCI  27
FINDLAY        CLOUDY    33  27  78 S7        30.31S WCI  27
TOLEDO EXPRESS CLOUDY    31  25  78 S5        30.32R WCI  26
TOLEDO METCALF MOSUNNY   32  25  75 S7        30.33S WCI  26
LIMA           CLOUDY    33  24  69 S7        30.30S HAZE    WCI  27
$$

OHZ009>014-019>023-028>033-038-089-211700-
   NORTHEAST OHIO

CITY           SKY/WX    TMP DP  RH WIND       PRES   REMARKS
CLE-HOPKINS    CLOUDY    30  22  72 S6        30.35S WCI  24
CLE-LAKEFRONT  CLOUDY    32  21  64 E5        30.33S WCI  27
CUY CO. ARPT   CLOUDY    34  23  64 SW7       30.32F WCI  28
LORAIN-ELYRIA  CLOUDY    30  22  72 S8        30.33R WCI  22
ASHTABULA      CLOUDY    31  24  75 S5        30.32S WCI  26
AKRON-CANTON   CLOUDY    30  21  69 SE3       30.31R
WOOSTER        NOT AVBL
MANSFIELD      SUNNY     30  20  66 SW5       30.29S WCI  25
YOUNGSTOWN     CLOUDY    30  21  69 SW5       30.30S WCI  25
$$

OHZ042-051>053-060>062-070>072-077>081-211700-
  SOUTHWEST OHIO

CITY           SKY/WX    TMP DP  RH WIND       PRES   REMARKS
CINC-COVINGTON PTSUNNY   32  23  69 E8        30.30F WCI  25
CINC-LUNKEN    PTSUNNY   32  25  75 VRB5      30.34F WCI  27
HAMILTON       MOSUNNY   32  26  78 CALM      30.33F HAZE
DAYTON         NOT AVBL
WRIGHT-PAT AFB NOT AVBL
DAYTON GENERAL SUNNY     31  24  75 SE10      30.30S WCI  22
WILMINGTON     PTSUNNY   30  23  75 SE7       30.30F WCI  23
$$

OHZ036-037-039>041-045>050-054>059-063>069-073>076-082>088-211700-
  CENTRAL AND SOUTHEAST OHIO

CITY           SKY/WX    TMP DP  RH WIND       PRES   REMARKS
COLUMBUS       PTSUNNY   31  21  66 SE5       30.33S WCI  26
OSU AIRPORT    MOSUNNY   33  21  61 SE6       30.31F WCI  28
BOLTON FIELD   MOSUNNY   32  23  69 E3        30.33S
RICKENBACK AFB NOT AVBL
NEWARK         CLOUDY    32  21  64 E5        30.33S WCI  27
MARION         PTSUNNY   32  24  72 S7        30.32S HAZE    WCI  26
LANCASTER      CLOUDY    45  23  42 E6        30.33F
ZANESVILLE     CLOUDY    31  22  69 CALM      30.33S
NEW PHILLY     CLOUDY    31  21  66 CALM      30.34R
$$



USA.gov is the U.S. government's official web portal to all federal, state and local government web resources and services.